Rotterdam, Netherlands

3:20 PM CEST on July 24, 2017 (GMT +0200)
Rotterdam

Weather History for EHRD - December, 2013

Change the Weather History Date:

Friday, December 13, 2013

  Actual Average Record
Temperature  
Mean Temperature 37 °F -  
Max Temperature 41 °F 42 °F 55 °F (1998)
Min Temperature 33 °F 34 °F 21 °F (2010)
Degree Days  
Heating Degree Days 28    
Moisture  
Dew Point 36 °F    
Average Humidity 95    
Maximum Humidity 100    
Minimum Humidity 85    
Precipitation  
Precipitation 0.00 in - - ()
Sea Level Pressure  
Sea Level Pressure 30.19 in    
Wind  
Wind Speed 8 mph ()    
Max Wind Speed 12 mph    
Max Gust Speed -    
Visibility 2.0 miles    
Events Fog    
Averages and records for this station are not official NWS values.
T = Trace of Precipitation, MM = Missing Value Source: Averaged Metar Reports

Daily Weather History Graph

Daily Weather History Graph

Search for Another Location

Airport or City:

Trip Planner

Search our weather history database for the weather conditions in past years. The results will help you decide how hot, cold, wet, or windy it might be!

Date:

Astronomy

Dec. 13, 2013 Rise Set
Actual Time 8:41 AM CET 4:30 PM CET
Civil Twilight 8:01 AM CET 5:11 PM CET
Nautical Twilight 7:17 AM CET 5:55 PM CET
Astronomical Twilight 6:36 AM CET 6:36 PM CET
Moon 2:23 PM CET (12/13) 4:27 AM CET (12/13)
Length of Visible Light 9h 10m
Length of Day
7h 48m
Waxing Gibbous, 86% of the Moon is Illuminated
Dec 13
Waxing Gibbous
Dec 17
Full
Dec 25
Last Quarter
Jan 1
New
Jan 8
First Quarter

Hourly Weather History & Observations

Time (CET) Temp. Windchill Dew Point Humidity Pressure Visibility Wind Dir Wind Speed Gust Speed Precip Events Conditions
12:25 AM 33.8 °F 27.0 °F 33.8 °F 100% 30.27 in - South 8.1 mph - N/A Fog Fog
12:55 AM 33.8 °F 26.4 °F 33.8 °F 100% 30.27 in 0.2 mi South 9.2 mph - N/A Fog Fog
1:00 AM 34 °F - 34 °F 100% 30.27 in 0 mi South 8.9 mph - - Fog Fog
1:25 AM 33.8 °F 25.8 °F 33.8 °F 100% 30.24 in 0.3 mi SSW 10.4 mph - N/A Fog Fog
1:55 AM 33.8 °F 26.4 °F 33.8 °F 100% 30.24 in 0.4 mi SSW 9.2 mph - N/A Fog Fog
2:25 AM 33.8 °F 25.3 °F 33.8 °F 100% 30.24 in 0.3 mi South 11.5 mph - N/A Fog Fog
2:55 AM 33.8 °F 25.3 °F 33.8 °F 100% 30.24 in 0.2 mi South 11.5 mph - N/A Fog Fog
3:25 AM 33.8 °F 25.3 °F 33.8 °F 100% 30.24 in 0.2 mi South 11.5 mph - N/A Fog Fog
3:55 AM 33.8 °F 27.7 °F 33.8 °F 100% 30.24 in 0.2 mi South 6.9 mph - N/A Fog Fog
4:00 AM 34 °F - 34 °F 100% 30.25 in 0 mi South 6.7 mph - - Fog Fog
4:25 AM 33.8 °F 27.0 °F 33.8 °F 100% 30.24 in 0.2 mi South 8.1 mph - N/A Fog Fog
4:55 AM 33.8 °F 26.4 °F 33.8 °F 100% 30.24 in 0.2 mi South 9.2 mph - N/A Fog Fog
5:25 AM 33.8 °F 25.8 °F 33.8 °F 100% 30.24 in 0.2 mi South 10.4 mph - N/A Fog Fog
5:55 AM 33.8 °F 26.4 °F 33.8 °F 100% 30.21 in 0.3 mi South 9.2 mph - N/A Fog Fog
6:25 AM 33.8 °F 27.7 °F 33.8 °F 100% 30.21 in 0.2 mi South 6.9 mph - N/A Fog Fog
6:55 AM 33.8 °F 26.4 °F 33.8 °F 100% 30.21 in 0.3 mi South 9.2 mph - N/A Fog Fog
7:00 AM 34 °F - 34 °F 100% 30.24 in 0 mi South 8.9 mph - - Fog Fog
7:25 AM 33.8 °F 26.4 °F 33.8 °F 100% 30.21 in - South 9.2 mph - N/A Fog Fog
7:55 AM 33.8 °F 26.4 °F 33.8 °F 100% 30.21 in 0.3 mi South 9.2 mph - N/A Fog Fog
8:25 AM 33.8 °F 26.4 °F 33.8 °F 100% 30.21 in 0.4 mi South 9.2 mph - N/A Fog Fog
8:55 AM 33.8 °F 26.4 °F 33.8 °F 100% 30.21 in 0.2 mi South 9.2 mph - N/A Fog Fog
9:25 AM 33.8 °F 26.4 °F 33.8 °F 100% 30.21 in 0.2 mi South 9.2 mph - N/A Fog Fog
9:55 AM 33.8 °F 27.0 °F 33.8 °F 100% 30.21 in 0.2 mi South 8.1 mph - N/A Fog Fog
10:00 AM 35 °F - 35 °F 97% 30.23 in 0 mi South 8.9 mph - - Fog Fog
10:25 AM 35.6 °F 28.6 °F 35.6 °F 100% 30.21 in 0.2 mi South 9.2 mph - N/A Fog Fog
10:55 AM 35.6 °F 28.6 °F 33.8 °F 93% 30.21 in 0.2 mi South 9.2 mph - N/A Fog Fog
11:25 AM 35.6 °F 28.6 °F 35.6 °F 100% 30.21 in 0.2 mi South 9.2 mph - N/A Fog Fog
11:55 AM 35.6 °F 30.7 °F 35.6 °F 100% 30.21 in 0.2 mi South 5.8 mph - N/A Fog Fog
12:25 PM 35.6 °F 28.6 °F 35.6 °F 100% 30.18 in 0.4 mi SSE 9.2 mph - N/A Fog Fog
12:55 PM 37.4 °F 32.1 °F 37.4 °F 100% 30.18 in 1.1 mi South 6.9 mph - N/A   Overcast
1:00 PM 38 °F - 37 °F 95% 30.20 in 2 mi South 6.7 mph - - Fog Fog
1:25 PM 39.2 °F 35.0 °F 37.4 °F 93% 30.18 in - South 5.8 mph - N/A   Scattered Clouds
1:55 PM 41.0 °F 35.2 °F 37.4 °F 87% 30.18 in 3.1 mi South 9.2 mph - N/A   Mist
2:25 PM 41.0 °F 35.8 °F 39.2 °F 93% 30.15 in 3.7 mi South 8.1 mph - N/A   Overcast
2:55 PM 41.0 °F 35.2 °F 37.4 °F 87% 30.15 in 3.7 mi South 9.2 mph - N/A   Overcast
3:25 PM 41.0 °F 35.8 °F 37.4 °F 87% 30.15 in 3.7 mi South 8.1 mph - N/A   Scattered Clouds
3:55 PM 41.0 °F 34.7 °F 37.4 °F 87% 30.15 in 3.7 mi SSE 10.4 mph - N/A   Unknown
4:00 PM 39 °F - 37 °F 89% 30.16 in 4 mi South 6.7 mph - -   Mist
4:25 PM 39.2 °F 35.0 °F 37.4 °F 93% 30.15 in 3.1 mi South 5.8 mph - N/A   Mist
4:55 PM 39.2 °F 33.6 °F 37.4 °F 93% 30.15 in 3.1 mi SSE 8.1 mph - N/A   Mist
5:25 PM 39.2 °F 34.2 °F 37.4 °F 93% 30.15 in 3.1 mi South 6.9 mph - N/A   Mist
5:55 PM 39.2 °F 34.2 °F 37.4 °F 93% 30.15 in 3.1 mi South 6.9 mph - N/A   Mist
6:25 PM 41.0 °F 35.2 °F 37.4 °F 87% 30.15 in 3.7 mi South 9.2 mph - N/A   Overcast
6:55 PM 41.0 °F 34.7 °F 37.4 °F 87% 30.15 in 4.3 mi South 10.4 mph - N/A   Mostly Cloudy
7:00 PM 40 °F - 37 °F 85% 30.15 in 4 mi South 8.9 mph - -   Mist
7:25 PM 39.2 °F 33.0 °F 37.4 °F 93% 30.12 in 4.3 mi South 9.2 mph - N/A   Unknown
7:55 PM 39.2 °F 33.0 °F 37.4 °F 93% 30.15 in 4.3 mi South 9.2 mph - N/A   Overcast
8:25 PM 39.2 °F 33.6 °F 37.4 °F 93% 30.12 in 4.3 mi South 8.1 mph - N/A   Overcast
8:55 PM 41.0 °F 34.3 °F 37.4 °F 87% 30.12 in 4.3 mi South 11.5 mph - N/A   Partly Cloudy
9:25 PM 41.0 °F 35.2 °F 37.4 °F 87% 30.12 in 4.3 mi South 9.2 mph - N/A   Unknown
9:55 PM 41.0 °F 34.7 °F 37.4 °F 87% 30.12 in 4.3 mi South 10.4 mph - N/A   Unknown
10:00 PM 40 °F - 37 °F 87% 30.14 in 4 mi South 8.9 mph - -   Mist
10:25 PM 39.2 °F 33.0 °F 37.4 °F 93% 30.12 in 5.0 mi South 9.2 mph - N/A   Unknown
10:55 PM 39.2 °F 32.0 °F 37.4 °F 93% 30.12 in 5.0 mi South 11.5 mph - N/A   Unknown
11:25 PM 39.2 °F 32.0 °F 37.4 °F 93% 30.12 in 4.3 mi SSW 11.5 mph - N/A   Unknown
11:55 PM 39.2 °F 32.0 °F 37.4 °F 93% 30.12 in 4.3 mi SSW 11.5 mph - N/A   Partly Cloudy